Regional Weather Roundup
Issued by NWS

Home | Current Version | Previous Version | Text Only | Print | Product List | Glossary Off
Versions: 1 2 3 4 5 6 7 8 9 10 11 12 13 14 15 16 17 18 19 20 21 22 23 24 25 26 27 28 29 30 31 32 33 34 35 36 37 38 39 40 41 42 43 44 45 46 47 48 49 50

717
ASUS43 KIND 131709
RWRIN

WEATHER ROUNDUP FOR INDIANA
NATIONAL WEATHER SERVICE INDIANAPOLIS IN
1200 PM EST SAT FEB 13 2016

NOTE: "FAIR" INDICATES FEW OR NO CLOUDS BELOW 12,000 FEET WITH NO
SIGNIFICANT WEATHER AND/OR OBSTRUCTIONS TO VISIBILITY.

* - STATION DOES NOT REPORT WEATHER SUCH AS PRECIPITATION OR FOG.

+ - STATION NOT QUALITY CONTROLLED BY THE NATIONAL WEATHER SERVICE.
    USE DATA WITH CAUTION...ESPECIALLY DEWPOINT AND RELATIVE
    HUMIDITY OBSERVATIONS.

INZ001>003-010>013-019-020-131800-
NORTHWEST INDIANA

CITY           SKY/WX    TMP DP  RH WIND       PRES   REMARKS
GARY /AIRPORT/ MOSUNNY   14 -11  31 W10       30.60S WCI   1
KNOX *+        SUNNY     12   0  57 NW16      30.56S WCI  -4
LA PORTE +     LGT SNOW  14   6  69 NW9G17    30.55S WCI   2
MICHIGAN CITY+ FLURRIES  12   3  67 NW10G17   30.57S WCI  -1
MONTICELLO +   SUNNY     14 -11  33 NW12      30.58S WCI   0
RENSSELAER +   SUNNY     14 -15  26 NW12      30.59S WCI   0
VALPARAISO     SUNNY     12  -1  56 W14       30.56S WCI  -3

$$

LMZ046-743>745-131800-
SOUTHERN LAKE MICHIGAN

STATION/POSITION TIME  TEMP    WIND        PRES    WAVE
                       AIR SEA DIR/SP/G            HT
                 (UTC) (F)     (DEG/KT/KT) (MB)    (FT)
BURNS HARBOR     1600   10     310/ 12/ 17 1035.6R
MICHIGAN CITY    1600   11     270/ 16/ 19   N/A

$$

INZ004-005-014>016-021>024-131800-
NORTH CENTRAL INDIANA

CITY           SKY/WX    TMP DP  RH WIND       PRES   REMARKS
ELKHART        LGT SNOW N/A N/A N/A MISG      30.51R
GOSHEN         SNOW      12   7  80 W14       30.50S VSB 1/2 WCI  -3
LOGANSPORT +   SUNNY     14  -4  44 W7        30.57S WCI   4
PERU/GRISSOM   SUNNY     14   1  56 NW13      30.53R WCI  -1
ROCHESTER +    SUNNY     18  -2  41 W12       30.54S WCI   5
SOUTH BEND     LGT SNOW  13   7  77 W15       30.53R VSB 1   WCI  -3
WARSAW +       SUNNY     14   5  67 W16G22    30.51S WCI  -2

$$

INZ006>009-017-018-025>027-131800-
NORTHEAST INDIANA

CITY           SKY/WX    TMP DP  RH WIND       PRES   REMARKS
ANGOLA *+      CLOUDY    12   5  73 W9        30.45S WCI   0
AUBURN +       CLOUDY    16   5  62 NW15      30.49S WCI   1
FORT WAYNE     MOSUNNY   14   5  67 W14       30.51S WCI  -1
HUNTINGTON +   SUNNY     13  -1  53 NW15      30.52S WCI  -3

$$

INZ028-029-035-036-043>045-051>053-131800-
WEST CENTRAL INDIANA

CITY           SKY/WX    TMP DP  RH WIND       PRES   REMARKS
CRAWFORDSVL +  SUNNY     11  -6  45 W12       30.59S WCI  -3
GREENCASTLE +  SUNNY     14  -8  37 W3        30.58F
LAFAYETTE      SUNNY     14  -8  37 N10       30.61R WCI   1
TERRE HAUTE    SUNNY     15  -3  44 NW7       30.62F WCI   5

$$

INZ030>032-037>040-046>048-054>057-064-065-131800-
CENTRAL INDIANA

CITY           SKY/WX    TMP DP  RH WIND       PRES   REMARKS
ANDERSON       MOSUNNY   14   3  62 W12       30.55S WCI   0
COLUMBUS       MOSUNNY   16   1  53 N9        30.59F WCI   4
FISHERS *+     MOSUNNY   14   3  62 NW8       30.57R WCI   3
FRANKFORT +    SUNNY     16 -15  23 W8        30.58S WCI   6
GREENWOOD *+   SUNNY     16   3  57 NW6       30.57S WCI   7
INDIANAPOLIS   MOSUNNY   15  -4  42 NW9       30.56S WCI   3
-EAGLE CREEK   SUNNY     15  -3  44 NW9       30.57R WCI   3
KOKOMO *+      MOSUNNY   14   1  57 W14       30.55R WCI  -1
MARION +       SUNNY     13  -5  45 NW13      30.54S WCI  -2
MT COMFORT *+  MOSUNNY   18   1  49 W9        30.56S WCI   6
SHELBYVILLE    MOSUNNY   16   2  54 W6        30.56S WCI   7
ZIONSVILLE +   SUNNY     13   1  56 W9        30.56S WCI   1

$$

INZ033-034-041-042-049-050-058-059-131800-
EAST CENTRAL INDIANA

CITY           SKY/WX    TMP DP  RH WIND       PRES   REMARKS
MUNCIE         SUNNY     13   1  59 NW12      30.53S WCI  -1

$$

INZ060-061-067>069-081>083-085>088-131800-
SOUTHWEST INDIANA

CITY           SKY/WX    TMP DP  RH WIND       PRES   REMARKS
EVANSVILLE     SUNNY     21   1  41 N8        30.64S WCI  11
HUNTINGBURG *+ SUNNY     19   1  45 NW8       30.61F WCI   9
WASHINGTON +   SUNNY     17  -5  38 NW3       30.62F

$$

INZ062-063-066-070>080-084-089>092-131800-
SOUTH CENTRAL AND SOUTHEAST INDIANA

CITY           SKY/WX    TMP DP  RH WIND       PRES   REMARKS
BEDFORD +      SUNNY     18   0  45 NW5       30.58F WCI  11
BLOOMINGTON    SUNNY     17  -2  43 N5        30.57F WCI  10
MADISON *+     MOSUNNY   19   3  49 N5        30.59S WCI  13
NORTH VERNON + MOSUNNY   16   3  57 CALM      30.58S
SEYMOUR +      SUNNY     19   1  45 NW6       30.59F WCI  11

$$





USA.gov is the U.S. government's official web portal to all federal, state and local government web resources and services.